Location: Catstown
(52.4386°N, 7.2633°W)
Time: 11:48:38
(UTC+00:00)

Cosmos 1833 Rocket - Pass Details

Date: 19 January 2021
Orbit: 833 x 839 km, 71.0° (Epoch: 24 February)

Event Time Altitude Azimuth Distance (km) Brightness Sun altitude
Rises 19:45:20 0° 329° (NNW) 3,393 6.2 -25.7°
Reaches altitude 10° 19:47:51 10° 334° (NNW) 2,456 5.4 -26.1°
Enters shadow 19:52:19 48° 12° (NNE) 1,079 3.1 -26.8°
